DW7040 Weather Reports


time (UTC)temp
C
wind
direction
speed
KPH
gust
KPH
rain 1hr
cm
rain 24hr
cm
rain mn
cm
humidity
%
barometer
mb
20260510213004 -17 197 0.0 1.6 0.00 0.00 0.00 1007.6
20260510211600 -17 197 0.0 3.2 0.00 0.00 0.00 1007.7
20260510210054 -17 196 1.6 4.8 0.00 0.00 0.00 1007.8
20260510204505 -17 196 1.6 4.8 0.00 0.00 0.00 1008.0
20260510203058 -17 197 3.2 6.4 0.00 0.00 0.00 1008.1
20260510201548 -17 197 0.0 1.6 0.00 0.00 0.00 1007.9
20260510200003 -17 197 1.6 4.8 0.00 0.00 0.00 1007.9
20260510194552 -17 197 4.8 8.0 0.00 0.00 0.00 1008.1
20260510193008 -17 197 4.8 8.0 0.00 0.00 0.00 1008.1
20260510190043 -17 197 6.4 11.3 0.00 0.00 0.00 1008.1
20260510184537 -17 197 8.0 16.1 0.00 0.00 0.00 1008.3
20260510183030 -17 197 11.3 20.9 0.00 0.00 0.00 1008.4
20260510181525 -17 197 8.0 20.9 0.00 0.00 0.00 1008.5
20260510180021 -17 197 14.5 19.3 0.00 0.00 0.00 1008.5
20260510174516 -17 197 14.5 20.9 0.00 0.00 0.00 1008.7
20260510173011 -17 197 9.7 19.3 0.00 0.00 0.00 1008.9
20260510171504 -17 195 14.5 24.1 0.00 0.00 0.00 1009.0
20260510170104 -17 197 12.9 22.5 0.00 0.00 0.00 1009.0
20260510164539 -17 196 9.7 19.3 0.00 0.00 0.00 1008.9
20260510163034 -17 197 14.5 27.4 0.00 0.00 0.00 1009.4
20260510161514 -17 197 12.9 24.1 0.00 0.00 0.00 1009.7
20260510160004 -17 197 16.1 29.0 0.00 0.00 0.00 1009.7
20260510154610 -17 196 16.1 25.7 0.00 0.00 0.00 1009.8
20260510153044 -17 196 12.9 24.1 0.00 0.00 0.00 1009.9
20260510151540 -17 197 11.3 22.5 0.00 0.00 0.00 1010.0
20260510150032 -17 196 17.7 29.0 0.00 0.00 0.00 1010.2
20260510144529 -17 196 16.1 29.0 0.00 0.00 0.00 1010.4
20260510143030 -17 196 14.5 30.6 0.00 0.00 0.00 1010.6
20260510141520 -17 196 14.5 29.0 0.00 0.00 0.00 1010.6
20260510140014 -17 196 14.5 22.5 0.00 0.00 0.00 1010.8
20260510134512 -17 197 9.7 24.1 0.00 0.00 0.00 1010.9
20260510133012 -17 196 14.5 24.1 0.00 0.00 0.00 1011.0
20260510131559 -17 197 14.5 27.4 0.00 0.00 0.00 1011.3
20260510130008 -17 197 9.7 22.5 0.00 0.00 0.00 1011.3
20260510124503 -17 200 14.5 30.6 0.00 0.00 0.00 1011.3
20260510123059 -17 196 11.3 20.9 0.00 0.00 0.00 1011.5
20260510121519 -17 196 12.9 27.4 0.00 0.00 0.00 1011.7
20260510120015 -17 196 12.9 29.0 0.00 0.00 0.00 1011.7
20260510114509 -17 196 14.5 27.4 0.00 0.00 0.00 1011.7
20260510113005 -17 197 14.5 29.0 0.00 0.00 0.00 1011.7
20260510111547 -17 197 12.9 27.4 0.00 0.00 0.00 1011.8
20260510110035 -17 197 11.3 24.1 0.00 0.00 0.00 1011.9
20260510104604 -17 197 19.3 27.4 0.00 0.00 0.00 1012.1
20260510103035 -17 198 17.7 32.2 0.00 0.00 0.00 1012.1
20260510101533 -17 197 14.5 25.7 0.00 0.00 0.00 1012.3
20260510100058 -17 197 19.3 30.6 0.00 0.00 0.00 1012.4
20260510094555 -17 197 14.5 32.2 0.00 0.00 0.00 1012.5
20260510093003 -17 197 19.3 29.0 0.00 0.00 0.00 1012.7
20260510091558 -17 197 17.7 29.0 0.00 0.00 0.00 1012.7
20260510090107 -17 198 16.1 30.6 0.00 0.00 0.00 1012.8
20260510084521 -17 197 17.7 32.2 0.00 0.00 0.00 1012.8
20260510083108 -17 197 17.7 27.4 0.00 0.00 0.00 1012.7
20260510081533 -17 198 12.9 32.2 0.00 0.00 0.00 1012.6
20260510080030 -17 197 12.9 30.6 0.00 0.00 0.00 1012.6
20260510074525 -17 197 12.9 25.7 0.00 0.00 0.00 1012.5
20260510073021 -17 196 12.9 27.4 0.00 0.00 0.00 1012.6
20260510071521 -17 197 12.9 24.1 0.00 0.00 0.00 1012.4
20260510070015 -17 196 12.9 20.9 0.00 0.00 0.00 1012.5
20260510064607 -17 197 11.3 19.3 0.00 0.00 0.00 1012.5
20260510063053 -17 197 14.5 24.1 0.00 0.00 0.00 1012.3
20260510061545 -17 197 12.9 20.9 0.00 0.00 0.00 1012.3
20260510060035 -17 197 11.3 25.7 0.00 0.00 0.00 1012.3
20260510054531 -17 197 11.3 19.3 0.00 0.00 0.00 1012.3
20260510053026 -17 197 12.9 22.5 0.00 0.00 0.00 1012.3
20260510051522 -17 200 16.1 24.1 0.00 0.00 0.00 1012.3
20260510050017 -17 197 9.7 22.5 0.00 0.00 0.00 1012.5
20260510044512 -17 197 9.7 25.7 0.00 0.00 0.00 1012.4
20260510043010 -17 198 9.7 24.1 0.00 0.00 0.00 1012.4
20260510041502 -17 197 17.7 27.4 0.00 0.00 0.00 1012.5
20260510040020 -17 196 16.1 24.1 0.00 0.00 0.00 1012.6
20260510034602 -17 196 12.9 24.1 0.00 0.00 0.00 1012.6
20260510033059 -17 197 14.5 25.7 0.00 0.00 0.00 1012.7
20260510031549 -17 198 19.3 27.4 0.00 0.00 0.00 1012.8
20260510030035 -17 197 16.1 33.8 0.00 0.00 0.00 1012.9
20260510024521 -17 198 12.9 24.1 0.00 0.00 0.00 1012.7
20260510023017 -17 197 17.7 29.0 0.00 0.00 0.00 1012.8
20260510021514 -17 197 17.7 27.4 0.00 0.00 0.00 1012.7
20260510020008 -17 197 16.1 25.7 0.00 0.00 0.00 1012.7
20260510014503 -17 196 14.5 20.9 0.00 0.00 0.00 1012.7
20260510013056 -17 197 17.7 24.1 0.00 0.00 0.00 1012.6
20260510011557 -17 198 17.7 25.7 0.00 0.00 0.00 1012.6
20260510010101 -17 197 19.3 25.7 0.00 0.00 0.00 1012.7
20260510004543 -17 198 17.7 27.4 0.00 0.00 0.00 1012.7
20260510003038 -17 196 16.1 27.4 0.00 0.00 0.00 1012.7
20260510001502 -17 197 16.1 29.0 0.00 0.00 0.00 1012.8
20260510000058 -17 197 20.9 30.6 0.00 0.00 0.00 1012.8
20260509234613 -17 197 16.1 30.6 0.00 0.00 0.00 1013.0
20260509233048 -17 197 22.5 33.8 0.00 0.00 0.00 1012.9
20260509231544 -17 197 16.1 25.7 0.00 0.00 0.00 1012.8
20260509230038 -17 197 12.9 27.4 0.00 0.00 0.00 1012.8
20260509224543 -17 197 20.9 30.6 0.00 0.00 0.00 1012.7
20260509223046 -17 197 22.5 29.0 0.00 0.00 0.00 1012.7
20260509221542 -17 197 17.7 27.4 0.00 0.00 0.00 1012.7
20260509220036 -17 196 17.7 27.4 0.00 0.00 0.00 1012.6
20260509214531 -17 198 17.7 29.0 0.00 0.00 0.00 1012.7